Change the Weather History Date:

Thursday, January 24, 2013

  Actual Average Record
Temperature  
Mean Temperature 38 °F 43 °F  
Max Temperature 46 °F 48 °F 58 °F (2014)
Min Temperature 30 °F 38 °F 22 °F (1969)
Degree Days  
Heating Degree Days 27 22  
Month to date heating degree days 539  
Cooling Degree Days 0 0  
Month to date cooling degree days 0  
Year to date cooling degree days 0  
Moisture  
Dew Point 36 °F    
Average Humidity 97    
Maximum Humidity 100    
Minimum Humidity 86    
Precipitation  
Precipitation 0.22 in 0.30 in 3.09 in (1984)
Month to date precipitation 8.26  
Year to date precipitation 8.26  
Sea Level Pressure  
Sea Level Pressure 30.13 in    
Wind  
Wind Speed 4 mph (ENE)    
Max Wind Speed 15 mph    
Max Gust Speed 25 mph    
Visibility 3 miles    
Events Fog , Rain    
T = Trace of Precipitation, MM = Missing Value Source: NWS Daily Summary

Daily Weather History Graph

Daily Weather History Graph

Search for Another Location

Airport or City:

Trip Planner

Search our weather history database for the weather conditions in past years. The results will help you decide how hot, cold, wet, or windy it might be!

Date:

Astronomy

Jan. 24, 2013 Rise Set
Actual Time 7:49 AM PST 5:07 PM PST
Civil Twilight 7:15 AM PST 5:40 PM PST
Nautical Twilight 6:38 AM PST 6:17 PM PST
Astronomical Twilight 6:02 AM PST 6:53 PM PST
Moon 3:12 PM PST (1/24) 5:53 AM PST (1/24)
Length of Visible Light 10h 24m
Length of Day
9h 17m
Waxing Gibbous, 95% of the Moon is Illuminated
Jan 24
Waxing Gibbous
Jan 26
Full
Feb 3
Last Quarter
Feb 9
New
Feb 17
First Quarter

Hourly Weather History & Observations

Time (PST) Temp. Windchill Dew Point Humidity Pressure Visibility Wind Dir Wind Speed Gust Speed Precip Events Conditions
12:01 AM 37.4 °F - 37.4 °F 100% 30.16 in 6.0 mi Calm Calm - N/A   Scattered Clouds
12:16 AM 35.6 °F - 35.6 °F 100% 30.16 in 1.8 mi Calm Calm - N/A   Clear
12:26 AM 35.6 °F - 33.8 °F 93% 30.17 in 0.5 mi Calm Calm - N/A Fog Fog
12:40 AM 37.4 °F - 37.4 °F 100% 30.17 in 1.2 mi Calm Calm - N/A   Partly Cloudy
12:53 AM 34.0 °F - 34.0 °F 100% 30.18 in 1.0 mi Calm Calm - N/A   Mist
1:00 AM 33.8 °F - 33.8 °F 100% 30.17 in 0.5 mi Calm Calm - N/A Fog Fog
1:18 AM 33.8 °F - 33.8 °F 100% 30.18 in 0.2 mi Calm Calm - N/A Fog Fog
1:34 AM 33.8 °F 30.8 °F 32.0 °F 93% 30.18 in 0.5 mi NE 3.5 mph - N/A Fog Fog
1:42 AM 33.8 °F 29.6 °F 33.8 °F 100% 30.18 in 1.2 mi NE 4.6 mph - N/A   Scattered Clouds
1:51 AM 32.0 °F 28.7 °F 32.0 °F 100% 30.18 in 0.8 mi NE 3.5 mph - N/A   Mist
1:53 AM 32.0 °F - 32.0 °F 100% 30.19 in 0.5 mi Calm Calm - N/A Fog Fog
2:03 AM 33.8 °F - 33.8 °F 100% 30.19 in 0.5 mi Calm Calm - N/A Fog Fog
2:13 AM 33.8 °F - 33.8 °F 100% 30.19 in 0.5 mi Calm Calm - N/A Fog Fog
2:17 AM 30.2 °F 25.4 °F 30.2 °F 100% 30.19 in 0.2 mi ENE 4.6 mph - N/A Fog Light Freezing Fog
2:39 AM 30.2 °F 25.4 °F 30.2 °F 100% 30.19 in 0.5 mi NE 4.6 mph - N/A Fog Light Freezing Fog
2:53 AM 30.9 °F 24.3 °F 30.9 °F 100% 30.20 in 0.2 mi NE 6.9 mph - N/A Fog Light Freezing Fog
3:00 AM 32.0 °F 27.5 °F 32.0 °F 100% 30.19 in 1.0 mi ENE 4.6 mph - N/A   Mostly Cloudy
3:10 AM 30.2 °F 25.4 °F 30.2 °F 100% 30.19 in 0.8 mi ENE 4.6 mph - N/A   Overcast
3:17 AM 32.0 °F 28.7 °F 32.0 °F 100% 30.19 in 2.0 mi ENE 3.5 mph - N/A   Overcast
3:21 AM 33.8 °F 30.8 °F 33.8 °F 100% 30.19 in 3.0 mi ENE 3.5 mph - N/A   Overcast
3:39 AM 32.0 °F 27.5 °F 30.2 °F 93% 30.18 in 2.5 mi ENE 4.6 mph - N/A   Mostly Cloudy
3:45 AM 32.0 °F 26.4 °F 30.2 °F 93% 30.18 in 1.2 mi NE 5.8 mph - N/A   Scattered Clouds
3:51 AM 32.0 °F 26.4 °F 30.2 °F 93% 30.18 in 0.8 mi NE 5.8 mph - N/A   Mist
3:53 AM 32.0 °F 26.4 °F 30.2 °F 93% 30.18 in 0.8 mi NE 5.8 mph - N/A   Mist
4:30 AM 30.2 °F 24.3 °F 30.2 °F 100% 30.19 in 1.0 mi ENE 5.8 mph - N/A   Clear
4:38 AM 30.2 °F 24.3 °F 30.2 °F 100% 30.19 in 0.8 mi ENE 5.8 mph - N/A   Clear
4:53 AM 30.9 °F 25.2 °F 30.9 °F 100% 30.20 in 0.8 mi ENE 5.8 mph - N/A   Partly Cloudy
5:03 AM 33.8 °F 28.6 °F 33.8 °F 100% 30.19 in 0.2 mi ENE 5.8 mph - N/A Fog Fog
5:25 AM 33.8 °F 27.0 °F 33.8 °F 100% 30.19 in 0.2 mi NE 8.1 mph - N/A Fog Fog
5:31 AM 33.8 °F 26.4 °F 33.8 °F 100% 30.19 in 0.5 mi NE 9.2 mph - N/A Fog Fog
5:43 AM 33.8 °F 27.0 °F 33.8 °F 100% 30.18 in 1.5 mi NE 8.1 mph - N/A   Overcast
5:48 AM 33.8 °F 27.0 °F 33.8 °F 100% 30.18 in 2.0 mi NE 8.1 mph - N/A   Overcast
5:53 AM 34.0 °F 28.0 °F 34.0 °F 100% 30.19 in 2.5 mi NE 6.9 mph - N/A   Overcast
6:01 AM 33.8 °F 28.6 °F 33.8 °F 100% 30.18 in 4.0 mi ENE 5.8 mph - N/A   Overcast
6:53 AM 34.0 °F 29.8 °F 34.0 °F 100% 30.18 in 4.0 mi ENE 4.6 mph - N/A   Overcast
7:53 AM 34.0 °F 26.6 °F 34.0 °F 100% 30.17 in 10.0 mi ENE 9.2 mph - N/A   Scattered Clouds
8:29 AM 33.8 °F 27.0 °F 33.8 °F 100% 30.16 in 5.0 mi ENE 8.1 mph - N/A   Partly Cloudy
8:53 AM 34.0 °F 26.6 °F 34.0 °F 100% 30.17 in 10.0 mi ENE 9.2 mph - N/A   Partly Cloudy
9:53 AM 35.1 °F 26.4 °F 34.0 °F 96% 30.15 in 9.0 mi ENE 12.7 mph - N/A   Partly Cloudy
10:10 AM 35.6 °F 28.0 °F 35.6 °F 100% 30.15 in 3.0 mi ENE 10.4 mph - N/A   Mostly Cloudy
10:24 AM 35.6 °F 29.9 °F 35.6 °F 100% 30.15 in 7.0 mi ENE 6.9 mph - N/A   Mostly Cloudy
10:53 AM 37.0 °F 29.8 °F 36.0 °F 96% 30.16 in 10.0 mi ENE 10.4 mph - N/A   Partly Cloudy
11:53 AM 39.9 °F 34.5 °F 39.0 °F 97% 30.12 in 10.0 mi ENE 8.1 mph - N/A   Overcast
12:53 PM 41.0 °F 35.2 °F 39.0 °F 93% 30.09 in 10.0 mi ENE 9.2 mph - N/A   Overcast
1:53 PM 42.1 °F 36.6 °F 39.0 °F 89% 30.08 in 10.0 mi ENE 9.2 mph - N/A   Overcast
2:53 PM 43.0 °F 37.7 °F 39.0 °F 86% 30.07 in 10.0 mi ENE 9.2 mph - 0.00 in Rain Light Rain
3:53 PM 43.0 °F 37.7 °F 39.9 °F 89% 30.06 in 10.0 mi ENE 9.2 mph - 0.01 in   Overcast
4:53 PM 43.0 °F 37.7 °F 41.0 °F 93% 30.06 in 6.0 mi ENE 9.2 mph - 0.04 in Rain Light Rain
5:32 PM 42.8 °F 39.3 °F 41.0 °F 93% 30.05 in 7.0 mi ENE 5.8 mph - 0.01 in Rain Light Rain
5:53 PM 44.1 °F 40.1 °F 41.0 °F 89% 30.06 in 6.0 mi ENE 6.9 mph - 0.02 in Rain Light Rain
6:07 PM 44.6 °F 41.4 °F 41.0 °F 87% 30.05 in 3.0 mi ENE 5.8 mph - 0.01 in Rain Light Rain
6:43 PM 42.8 °F 38.0 °F 42.8 °F 100% 30.05 in 3.0 mi ENE 8.1 mph - 0.03 in Rain Light Rain
6:53 PM 43.0 °F 39.5 °F 42.1 °F 97% 30.06 in 3.0 mi East 5.8 mph - 0.04 in Rain Light Rain
7:00 PM 42.8 °F 38.0 °F 42.8 °F 100% 30.05 in 2.5 mi ENE 8.1 mph - 0.00 in Rain Light Rain
7:02 PM 42.8 °F 38.6 °F 42.8 °F 100% 30.05 in 3.0 mi ENE 6.9 mph - N/A Rain Light Rain
7:14 PM 42.8 °F 37.5 °F 42.8 °F 100% 30.05 in 2.5 mi ENE 9.2 mph - 0.01 in Rain Light Rain
7:22 PM 42.8 °F 38.0 °F 42.8 °F 100% 30.05 in 3.0 mi ENE 8.1 mph - 0.02 in Rain Light Rain
7:25 PM 42.8 °F 38.0 °F 42.8 °F 100% 30.05 in 2.5 mi ENE 8.1 mph - 0.02 in Rain Light Rain
7:31 PM 42.8 °F 38.0 °F 42.8 °F 100% 30.05 in 3.0 mi ENE 8.1 mph - 0.03 in Rain Light Rain
7:53 PM 43.0 °F 39.5 °F 42.1 °F 97% 30.06 in 3.0 mi ENE 5.8 mph - 0.05 in Rain Light Rain
8:53 PM 43.0 °F 38.8 °F 42.1 °F 97% 30.05 in 3.0 mi East 6.9 mph - 0.03 in   Overcast
9:01 PM 44.6 °F 41.4 °F 42.8 °F 93% 30.04 in 2.5 mi ENE 5.8 mph - 0.01 in   Overcast
9:13 PM 42.8 °F 38.0 °F 42.8 °F 100% 30.03 in 3.0 mi NE 8.1 mph - 0.01 in Rain Light Rain
9:53 PM 44.1 °F 39.5 °F 42.1 °F 93% 30.04 in 4.0 mi East 8.1 mph - 0.02 in Rain Light Rain
10:53 PM 45.0 °F 40.1 °F 43.0 °F 93% 30.05 in 5.0 mi SE 9.2 mph - 0.00 in   Overcast
11:13 PM 44.6 °F 39.2 °F 42.8 °F 93% 30.04 in 4.0 mi SSE 10.4 mph - N/A   Overcast
11:51 PM 46.4 °F 40.1 °F 42.8 °F 87% 30.04 in 5.0 mi SSE 15.0 mph 25.3 mph 0.01 in   Overcast
11:53 PM 46.0 °F 39.6 °F 43.0 °F 89% 30.05 in 5.0 mi SSE 15.0 mph 25.3 mph 0.01 in   Overcast